Weather in Jurin

Ukraine / Ternopil District     49°01′45″N   25°34′38″E
temp.,
°C
wind,
m/s
gust,
m/s
humid.,
%
clouds,
%
prec.,
mm/h
press.,
hPa
HPBL,
m
19 april, mon
mon1900:00+8wnw2269100 0.0 101820
03:00+8wnw1174100 0.0 101712
06:00+7nne2381100 0.0 101647
09:00+8ne1176100 0.0 1017289
12:00+8ese2281100 0.3 1017494
15:00+11ne2264100 0.4 10151094
18:00+11ese3364100 0.7 1014889
21:00+8e248299 1.9 101497
20 april, tue
tue2000:00+8e238094 0.5 101473
03:00+6ene238873 0.7 101362
06:00+5ne358894 0.0 101396
09:00+8nne457573 0.0 1013358
12:00+11nne445347 0.2 10121454
15:00+12nne5557100 0.9 10111392
18:00+11nne555763 0.3 10111187
21:00+8n2369100 0.4 101372
21 april, wed
wed2100:00+7wnw2273100 0.0 101322
03:00+5w238285 0.0 101336
06:00+4w3387100 0.0 101354
09:00+8w467996 0.0 1014362
12:00+11w5663100 0.6 10131340
15:00+11wsw5769100 1.8 1014871
18:00+12w466296 0.8 10131200
21:00+8sw36825 1.2 1014110
22 april, thu
thu2200:00+6sw368285 0.0 1015119
03:00+6sw338348 0.0 101545
06:00+5ssw358144 0.0 101563
09:00+10sw496981 0.0 1015503
12:00+14w565687 0.7 10151480
15:00+11nw557696 1.9 1017739
18:00+11wnw246981 0.3 1016567
21:00+9sse1186100 0.6 101613
23 april, fri
fri2300:00+4nnw71194100 1.5 1017371
03:00+5wnw5989100 2.2 1017926
06:00+3wnw4891100 2.9 1019635
09:00+5wnw587798 2.9 1020822
12:00+8wnw685398 0.1 10201956
15:00+8wnw8105699 0.4 10201722
18:00+9nw7105321 0.2 10212087
21:00+5wnw410682 0.2 1023366